Theta_e
320 316 319 327 331 335 339 338 338 340 342 345 346 346 345 344 346 346 346 344 337 336 335 336 335 334 333 334 334 328 326 326 326 325 324 327 330 325 319 315 313 313 314 315 315 316 317 317 317
319 316 324 328 327 331 332 337 340 336 344 344 342 344 345 343 343 344 342 339 331 329 335 336 338 334 332 334 330 327 327 326 325 328 333 324 319 314 313 314 314 315 316 317 317 317 317 316 316
316 321 324 319 325 331 335 336 336 338 343 342 341 344 344 343 345 344 342 333 328 331 335 334 331 329 328 328 327 328 326 326 333 330 320 316 313 314 314 315 316 316 317 318 318 318 316 315 313
317 323 324 323 324 324 332 335 335 337 344 343 342 343 340 341 343 341 340 327 328 333 333 330 326 325 325 326 326 324 324 333 329 320 315 313 314 314 315 316 317 318 318 318 318 317 315 314 314
320 322 317 318 319 321 329 333 337 338 341 344 345 345 341 341 341 339 329 326 326 327 328 327 326 325 325 325 325 325 333 332 321 315 313 314 315 316 317 318 318 319 319 320 319 317 316 316 317
320 317 314 315 316 320 327 333 337 339 342 344 345 343 342 342 340 339 331 326 326 326 328 328 327 326 326 325 326 333 333 324 317 313 314 315 317 319 320 321 321 321 321 320 320 318 317 319 320
316 312 314 315 316 317 322 335 337 340 341 340 344 341 342 343 341 339 339 334 327 326 325 325 324 326 326 327 333 335 327 319 313 314 316 319 322 322 322 322 322 321 321 321 321 320 320 320 321
319 311 315 314 315 317 325 337 338 340 339 335 339 342 340 344 342 341 341 331 325 326 325 325 336 337 330 335 336 330 320 314 314 319 322 322 324 324 324 323 322 322 322 321 321 322 321 321 322
321 314 313 316 321 325 331 335 338 338 337 337 336 341 340 342 343 343 342 338 332 328 326 326 335 337 338 336 331 322 314 313 319 326 325 323 325 325 324 324 324 323 323 322 322 322 322 323 321
316 312 316 315 322 323 322 336 337 337 337 342 339 340 340 342 343 343 341 339 337 335 333 331 332 338 337 328 323 317 314 323 327 328 325 325 325 325 325 325 324 324 323 323 322 323 323 322 320
317 316 315 320 323 324 322 324 335 337 337 341 340 340 342 343 342 343 343 342 338 335 332 330 333 329 334 322 321 315 318 325 326 328 327 327 327 325 325 325 325 325 324 323 323 323 323 321 318
319 319 318 321 324 323 322 335 335 336 337 341 341 340 340 340 340 340 339 336 335 333 332 334 331 333 327 325 316 316 325 327 326 326 326 326 326 326 325 325 324 324 324 324 323 322 321 319 319
319 320 322 324 327 335 335 335 335 335 337 340 341 341 340 339 338 337 336 336 334 330 332 329 331 333 329 323 316 318 325 328 328 328 326 326 326 325 325 324 323 324 324 323 322 321 319 319 318
320 320 320 324 338 339 337 336 336 337 335 336 338 338 337 337 336 335 334 335 329 329 333 332 332 330 328 324 317 324 327 329 329 325 325 324 324 324 324 323 323 322 321 321 319 319 319 316 313
320 320 317 322 328 337 339 340 340 337 334 334 334 333 335 334 331 332 332 329 328 332 331 331 331 331 328 324 324 329 328 327 325 324 324 325 325 324 323 322 322 320 320 319 319 317 313 311 308
316 316 315 327 333 339 339 349 341 339 339 335 332 331 333 332 332 330 331 330 330 333 329 333 332 330 329 328 327 326 326 325 325 325 324 323 323 323 322 321 321 320 320 320 317 314 311 308 308
315 319 320 335 338 338 339 345 339 338 335 334 332 330 331 332 332 332 329 329 330 331 330 332 332 330 327 327 327 326 326 324 322 322 321 321 321 321 321 322 322 321 320 317 314 311 309 308 309
321 323 329 339 339 338 340 341 337 335 334 334 332 330 329 330 330 331 330 330 330 330 330 330 330 328 328 328 328 327 323 323 322 322 322 323 323 323 323 323 322 321 319 316 313 311 309 310 309
323 323 337 341 336 339 340 337 334 333 332 332 331 329 329 328 328 328 328 330 329 329 327 327 325 324 322 322 322 322 322 321 319 319 321 320 320 321 322 322 322 319 317 316 313 311 309 310 308
321 321 327 335 333 332 334 337 335 333 331 331 330 330 328 328 327 328 327 327 327 325 323 322 322 320 320 318 319 318 318 318 316 317 316 315 315 316 316 319 318 317 317 316 313 310 309 310 309
321 321 322 330 335 334 334 336 333 330 330 329 327 326 326 326 327 327 327 326 324 322 320 321 320 320 320 318 318 318 317 316 314 314 315 314 313 313 314 315 315 315 316 316 312 310 309 310 309
322 321 322 335 324 334 330 336 335 331 327 325 324 324 324 325 325 325 325 324 322 319 317 316 315 314 312 311 312 312 311 311 312 312 310 311 312 313 314 314 314 313 312 312 310 309 310 309 310
324 322 322 321 319 322 330 333 336 329 329 326 323 322 323 324 324 323 318 316 316 315 315 314 314 313 312 311 310 311 311 311 311 311 309 309 310 310 311 313 312 312 312 310 310 310 310 309 309
322 322 318 317 316 320 327 332 339 337 329 326 322 321 321 320 317 316 315 315 315 315 314 313 313 312 311 309 308 310 310 309 308 308 308 309 310 310 310 311 312 312 312 312 310 310 310 310 310
320 317 319 321 320 322 329 332 338 330 326 324 322 319 318 317 316 316 315 314 315 314 314 313 313 311 308 308 308 308 308 308 308 308 309 309 310 310 309 309 310 310 311 311 311 310 309 310 310
322 318 319 323 322 321 330 334 335 326 324 323 320 319 317 316 317 316 315 314 315 314 314 313 309 307 308 308 308 307 307 307 307 307 308 308 309 309 308 309 309 308 309 309 308 309 309 310 310
322 322 318 320 320 321 331 331 328 324 323 321 319 317 317 317 317 316 315 315 314 311 309 307 308 308 308 308 307 307 307 307 306 307 308 308 307 308 308 308 308 308 308 309 309 309 309 310 310
323 322 323 320 326 326 331 331 332 330 326 322 319 318 318 317 317 317 315 313 310 307 307 307 308 308 308 307 307 307 307 306 306 306 307 308 308 308 307 307 307 307 309 308 308 308 310 309 309
320 322 321 319 319 323 326 327 327 330 325 322 321 318 318 318 317 316 311 309 307 307 308 308 308 307 307 306 306 307 307 307 306 306 307 307 308 308 307 307 307 308 309 307 307 306 308 309 308
322 323 320 322 325 324 323 323 322 323 322 321 319 319 319 317 316 311 310 308 309 309 308 308 307 307 307 307 307 307 307 306 306 305 307 307 308 307 307 306 306 308 308 307 307 308 308 308 307
Wind_Speed
13 15 10 2 3 4 2 5 1 5 2 2 5 5 7 5 1 1 11 15 13 22 20 18 15 14 14 14 13 13 14 14 15 16 18 19 18 18 18 17 17 16 16 14 14 13 12 12 11
14 11 5 3 4 4 6 3 4 5 3 16 12 9 5 3 6 11 21 10 19 21 20 17 13 12 13 13 13 13 13 14 16 17 17 17 18 18 18 17 16 15 14 13 13 12 13 13 13
10 6 1 4 3 3 4 4 6 3 11 5 4 9 6 5 9 22 16 15 18 18 18 15 13 13 14 14 14 13 13 14 14 14 15 16 16 17 16 15 14 14 12 11 10 10 11 12 13
2 1 3 3 5 8 6 5 7 3 9 4 9 7 9 4 17 13 19 17 16 16 14 14 13 12 12 12 13 14 15 15 14 14 14 15 15 14 14 13 12 11 9 8 8 9 10 12 14
3 1 2 1 5 5 5 11 9 5 5 6 7 6 7 10 12 20 19 17 17 17 14 12 12 13 15 16 17 17 18 17 17 16 16 15 13 13 12 10 8 7 6 6 6 8 11 14 18
1 2 3 2 5 5 6 14 10 7 6 9 10 11 5 13 19 21 18 16 16 16 13 11 11 13 15 17 17 16 15 15 15 17 16 14 12 10 8 7 5 5 4 5 6 8 11 14 18
4 4 3 3 5 7 5 13 14 8 6 4 12 4 12 21 22 22 18 16 16 14 12 12 13 14 14 14 16 16 15 15 15 15 14 12 9 7 6 5 3 2 3 5 8 10 12 16 21
1 4 2 4 3 6 4 7 11 12 2 11 6 7 11 25 25 22 19 17 18 17 15 10 9 13 16 16 14 15 16 17 16 13 12 9 9 9 7 7 4 0 4 7 9 12 14 18 22
2 4 3 4 3 6 9 3 8 7 15 9 6 9 30 30 27 25 25 25 24 21 19 15 14 16 15 15 16 16 15 16 15 13 12 10 8 6 6 4 3 5 8 8 12 14 15 19 22
5 4 7 6 3 5 0 13 17 9 16 13 29 34 35 31 28 27 25 21 15 15 12 16 18 20 15 16 18 17 16 15 13 11 10 8 7 7 8 8 7 8 9 11 11 12 16 19 24
4 5 6 13 20 10 1 7 9 16 4 7 31 37 34 32 28 22 18 11 8 7 18 19 24 13 20 19 19 19 18 16 12 12 12 9 8 8 10 10 9 10 12 11 11 13 16 22 24
1 11 8 9 7 3 6 11 21 21 16 25 30 29 32 30 25 20 15 12 4 3 11 17 16 16 21 21 19 19 14 13 12 11 10 10 10 9 9 9 12 14 14 13 13 17 23 22 25
3 6 10 12 23 28 44 34 18 30 30 29 30 28 25 23 20 12 4 2 7 10 22 19 12 17 18 18 17 17 15 13 12 11 10 8 9 10 12 14 16 15 14 16 21 23 20 23 27
9 10 9 12 32 22 29 22 10 19 25 32 31 27 26 22 16 13 12 16 17 21 16 9 1 2 12 14 15 15 14 14 13 12 11 10 10 12 15 16 13 13 19 20 17 18 21 23 25
8 6 7 24 4 7 14 26 16 16 26 31 27 21 18 14 14 18 22 22 21 19 10 5 5 6 11 12 13 11 10 12 10 9 10 13 17 17 14 13 16 19 18 17 16 19 21 22 19
8 7 7 11 13 15 16 9 13 15 24 26 22 19 18 14 15 19 16 16 18 15 7 0 1 6 10 12 11 11 8 5 6 7 8 10 12 13 17 17 15 13 14 14 17 20 22 19 13
7 5 6 8 23 4 9 10 14 15 20 24 23 22 20 19 17 15 12 12 10 5 4 9 8 5 10 9 5 4 7 10 11 12 12 13 15 17 15 13 15 15 14 17 16 18 18 13 9
2 5 7 8 11 25 20 17 16 17 21 20 21 21 23 21 16 11 8 7 3 6 5 7 10 8 8 15 17 17 13 9 8 9 9 9 11 11 14 15 14 11 15 16 15 16 13 9 8
1 5 11 10 11 17 16 16 12 14 14 16 16 15 17 18 17 14 10 6 6 2 3 4 4 6 4 5 5 10 11 7 10 12 13 14 11 14 15 15 12 12 16 16 16 16 12 9 9
7 6 10 11 10 16 16 15 12 13 11 11 11 10 10 12 13 12 8 5 3 1 1 3 5 6 9 9 9 9 9 9 11 14 15 17 17 15 14 17 18 17 15 16 17 14 12 10 8
4 6 2 8 19 17 20 9 9 10 13 10 10 6 6 8 9 9 6 4 3 3 10 11 11 12 12 15 17 15 19 19 19 18 21 19 20 18 18 18 18 15 12 14 16 15 12 11 6
7 3 7 21 5 5 6 5 5 8 6 5 3 3 6 6 7 5 4 5 7 9 12 12 13 14 18 18 17 17 19 21 20 21 21 21 18 17 15 13 12 12 13 14 13 13 10 10 8
3 2 4 4 3 6 3 5 6 11 6 5 2 2 3 4 4 7 7 7 8 9 9 9 10 11 14 16 20 16 16 15 17 19 24 25 21 17 14 10 11 9 11 11 11 10 9 10 9
2 3 7 4 3 3 5 5 3 2 5 4 3 5 5 6 7 8 6 5 6 7 6 8 10 13 18 20 18 14 15 17 19 21 22 22 21 19 16 15 16 13 12 14 9 11 11 9 9
8 7 4 5 5 3 3 6 4 5 5 7 11 9 9 6 4 4 7 8 7 8 7 10 11 15 14 12 13 13 14 15 18 20 19 21 20 17 19 19 18 17 14 15 11 12 13 11 8
3 5 4 4 3 3 5 4 4 5 6 6 8 9 7 3 1 5 9 7 7 10 10 10 15 12 12 12 14 16 16 19 20 21 15 16 17 17 14 13 16 16 18 14 13 14 13 13 8
5 4 2 4 2 4 2 3 3 4 5 7 11 10 6 4 4 7 9 8 9 6 11 11 11 14 13 16 17 16 16 18 19 17 11 11 12 11 11 9 11 10 14 16 15 13 10 7 5
6 3 5 4 3 2 1 2 3 10 8 5 9 11 6 5 4 7 6 4 7 10 11 12 14 18 15 16 16 15 18 17 18 16 12 13 11 8 11 12 11 10 9 12 9 13 13 6 6
6 5 4 4 3 4 3 5 3 2 6 8 10 9 5 2 4 3 3 7 7 8 12 14 18 16 17 17 16 16 17 17 19 16 12 12 10 11 12 14 11 7 8 13 7 1 7 3 3
5 3 3 4 2 2 3 4 4 3 2 6 7 5 3 2 2 2 6 7 9 12 16 18 15 14 15 15 18 18 18 18 19 16 12 10 10 11 12 10 10 6 5 6 0 3 4 2 3
Wind_Direction
341 337 334 325 32 53 276 268 255 304 35 338 127 148 143 60 22 240 134 152 167 166 162 160 162 163 161 159 155 150 146 142 141 137 133 130 128 124 118 111 106 102 96 89 84 77 68 58 52
328 333 3 42 71 16 292 258 226 241 20 109 94 103 69 97 93 125 149 144 165 163 157 157 154 151 151 149 146 143 141 142 139 135 133 128 122 116 112 109 105 99 93 86 79 70 61 51 44
323 342 94 95 117 199 240 239 238 268 184 149 112 89 118 109 119 138 160 151 166 153 152 155 156 154 154 151 147 142 140 136 131 129 125 119 116 112 109 106 101 94 87 82 74 67 57 48 38
314 145 79 99 224 253 219 222 202 201 217 238 131 83 80 7 130 130 144 145 149 147 153 158 158 157 153 150 147 146 141 140 138 133 123 118 112 106 104 102 97 90 83 73 67 58 48 34 27
319 141 54 332 251 265 242 245 180 170 173 172 151 84 76 131 131 133 134 142 149 149 155 157 159 161 159 158 155 152 152 154 149 138 127 116 105 98 92 85 78 78 71 59 48 39 24 19 15
241 70 48 276 263 266 285 225 176 163 183 145 109 96 57 129 135 132 126 133 150 149 146 148 159 165 164 160 157 155 157 153 145 137 134 127 117 110 99 88 74 54 50 35 27 14 8 9 5
134 88 218 237 270 318 262 183 166 153 159 79 115 79 123 139 140 133 132 141 146 146 148 158 167 171 170 164 160 161 160 154 146 142 140 135 129 125 121 105 88 56 8 7 4 349 346 353 351
16 93 301 248 211 268 263 136 135 131 158 122 107 134 147 154 153 143 137 130 142 144 146 164 169 179 173 171 171 169 166 161 155 152 149 143 143 124 115 105 93 290 322 331 328 321 327 339 337
206 49 287 257 279 263 168 103 96 139 111 57 60 133 149 159 153 147 147 145 147 152 164 186 186 195 185 175 176 175 170 164 163 163 166 164 157 153 149 172 228 275 287 297 304 309 323 328 330
128 139 232 217 225 290 123 141 144 134 97 98 94 122 144 155 162 160 152 146 161 175 202 217 216 233 186 187 181 179 173 173 173 177 183 189 196 201 206 233 255 262 257 275 291 305 316 322 324
180 213 179 255 266 271 131 85 40 88 49 168 130 129 141 149 158 160 158 167 147 188 190 204 190 186 190 193 187 185 184 183 186 194 208 219 230 233 246 246 256 261 261 271 285 301 310 315 320
295 263 244 280 277 25 37 69 63 48 64 122 111 122 135 131 139 149 152 143 149 289 192 166 189 194 194 190 181 184 190 194 198 209 220 231 239 241 242 254 266 267 268 281 297 305 312 317 322
212 303 332 327 78 86 77 63 73 54 76 109 122 122 121 135 137 142 157 83 117 152 154 178 196 206 202 193 190 193 201 211 219 216 220 216 237 255 263 267 268 266 281 297 300 302 310 318 323
299 276 281 82 86 72 75 44 80 48 81 87 95 85 96 115 122 127 123 132 144 153 168 194 108 330 215 211 212 206 213 216 224 215 216 224 240 259 274 277 283 294 301 299 302 309 318 323 324
291 322 13 18 34 150 50 40 63 72 89 79 77 83 87 94 117 131 135 143 160 156 159 211 256 258 221 215 220 225 212 198 199 210 231 251 262 262 266 285 295 299 298 301 311 323 328 328 327
21 39 36 6 51 15 82 86 77 75 78 73 70 77 92 111 125 141 145 153 161 166 177 288 245 210 196 180 162 158 163 184 224 241 261 275 269 278 286 288 293 297 296 309 323 329 330 331 325
8 57 29 27 13 107 81 107 72 72 77 77 70 72 82 92 126 127 146 150 152 156 268 268 271 235 191 173 185 239 283 291 289 281 279 275 284 288 290 295 304 303 310 321 326 335 330 331 329
300 67 51 65 43 74 85 90 72 62 69 75 73 72 75 81 96 127 122 101 138 341 307 293 300 309 271 251 256 277 298 313 309 300 301 305 321 322 303 304 302 299 314 318 326 340 332 335 339
181 97 106 116 119 73 90 89 68 70 71 73 75 85 88 91 94 96 98 128 227 281 296 281 297 317 331 291 260 257 267 307 321 322 316 311 317 319 310 300 291 306 315 307 322 335 326 328 339
63 54 88 70 89 97 104 85 72 83 75 82 94 75 79 86 98 104 110 118 123 107 282 315 327 2 14 12 4 350 329 319 322 331 314 321 313 293 294 293 303 306 307 305 315 325 323 324 337
47 80 35 112 88 113 117 89 96 76 81 63 62 82 78 111 116 115 113 78 70 40 6 359 360 346 343 338 321 311 307 307 319 319 314 317 326 326 317 301 296 290 297 305 312 317 316 308 332
49 317 128 148 134 183 210 133 138 126 97 68 76 142 154 144 134 122 98 50 32 14 16 7 13 15 4 352 347 345 344 336 331 332 334 325 323 322 309 307 311 309 301 292 297 309 293 302 309
221 355 60 134 109 102 85 92 157 154 158 163 191 220 152 146 105 89 81 65 44 25 13 2 0 356 356 348 335 329 326 325 331 321 318 316 312 305 310 301 297 305 305 296 308 313 296 290 290
55 40 34 58 81 62 299 129 145 175 155 150 208 198 183 148 123 80 57 20 14 1 357 342 350 354 343 337 337 331 328 331 329 324 321 319 320 321 317 303 296 285 275 280 299 313 295 289 284
51 48 351 355 5 220 260 57 81 116 145 175 205 199 192 174 138 61 19 13 1 341 321 326 333 333 333 342 347 347 338 332 329 321 320 323 320 315 309 304 293 293 290 277 267 278 289 282 270
354 130 156 249 216 228 16 99 129 133 137 177 199 213 206 187 260 339 4 350 324 322 322 336 329 335 344 348 345 342 340 339 339 329 317 323 315 314 313 311 314 306 293 279 271 282 276 276 249
325 22 268 99 27 75 41 89 153 169 208 188 201 212 212 224 278 350 325 325 340 2 346 349 355 348 344 340 340 342 342 337 336 348 328 324 325 334 342 333 336 336 344 266 272 281 282 228 229
74 267 12 11 343 19 99 210 209 207 216 213 227 238 244 255 265 311 320 355 354 352 355 348 346 342 340 338 339 339 337 333 330 321 313 317 320 328 330 334 338 332 348 5 322 255 243 224 228
357 6 33 108 103 159 187 247 195 159 171 201 227 237 228 271 285 316 46 359 358 348 340 342 336 340 338 337 347 335 334 337 339 333 318 314 319 322 328 338 344 342 346 357 329 156 108 111 233
85 9 65 121 260 68 139 281 41 53 141 197 218 217 301 229 74 40 339 347 341 344 340 334 337 337 338 340 340 336 335 336 346 347 334 328 319 323 328 326 336 340 349 9 55 89 131 208 283